Terug naar catalogus

STARLINK-3641

ActiefCommunicatieVLEO
NORAD 51788·PAYLOAD·🇺🇸 United States

Gelanceerd Feb 25, 2022 vanaf Vandenberg Space Force Base

Loading…

Volgende Passages (komende 24 uur)

TLE

VersSource: CelesTrak SupGP

Epoch: Sep 14, 2026, 21:57 UTC

1 51788C 22017W   26257.91506944 -.00024653  00000+0 -72826-3 0  2577
2 51788  53.1570 205.4812 0001290  96.6596 132.1731 15.34408543    13

Volg STARLINK-3641 in realtime met AllMySat

Download on the App Store